Weather History for KEGE - October, 2012

Change the Weather History Date:

Thursday, October 11, 2012

  Actual Average Record
Temperature  
Mean Temperature 53 °F -  
Max Temperature 73 °F 64 °F 81 °F (1950)
Min Temperature 33 °F 27 °F 14 °F (1949)
Degree Days  
Heating Degree Days 12    
Growing Degree Days 3 (Base 50)    
Moisture  
Dew Point 26 °F    
Average Humidity 44    
Maximum Humidity 70    
Minimum Humidity 16    
Precipitation  
Precipitation 0.00 in - - ()
Sea Level Pressure  
Sea Level Pressure 30.12 in    
Wind  
Wind Speed 3 mph (ESE)    
Max Wind Speed 13 mph    
Max Gust Speed 18 mph    
Visibility 10 miles    
Events      
Averages and records for this station are not official NWS values.
T = Trace of Precipitation, MM = Missing Value Source: NWS Daily Summary

Daily Weather History Graph

Daily Weather History Graph

Search for Another Location

Airport or City:

Trip Planner

Search our weather history database for the weather conditions in past years. The results will help you decide how hot, cold, wet, or windy it might be!

Date:

Astronomy

Oct. 11, 2012 Rise Set
Actual Time 7:14 AM MDT 6:33 PM MDT
Civil Twilight 6:47 AM MDT 7:00 PM MDT
Nautical Twilight 6:15 AM MDT 7:31 PM MDT
Astronomical Twilight 5:44 AM MDT 8:02 PM MDT
Moon 2:56 AM MDT (10/11) 4:11 PM MDT (10/11)
Length of Visible Light 12h 13m
Length of Day
11h 19m
Waning Crescent, 18% of the Moon is Illuminated
Oct 11
Waning Crescent
Oct 15
New
Oct 21
First Quarter
Oct 29
Full
Nov 6
Last Quarter

Hourly Weather History & Observations

Time (MDT) Temp. Windchill Dew Point Humidity Pressure Visibility Wind Dir Wind Speed Gust Speed Precip Events Conditions
12:15 AM 46.4 °F 43.5 °F 28.4 °F 50% 30.11 in 10.0 mi East 5.8 mph - N/A   Clear
12:35 AM 46.4 °F - 26.6 °F 46% 30.11 in 10.0 mi Calm Calm - N/A   Clear
12:55 AM 46.4 °F - 26.6 °F 46% 30.12 in 10.0 mi Calm Calm - N/A   Clear
1:15 AM 44.6 °F 43.1 °F 26.6 °F 49% 30.11 in 10.0 mi ESE 3.5 mph - N/A   Clear
1:55 AM 42.8 °F - 26.6 °F 53% 30.12 in 10.0 mi Calm Calm - N/A   Clear
2:15 AM 42.8 °F - 26.6 °F 53% 30.12 in 10.0 mi Calm Calm - N/A   Clear
2:35 AM 42.8 °F - 26.6 °F 53% 30.13 in 10.0 mi Calm Calm - N/A   Clear
2:55 AM 39.2 °F 37.0 °F 26.6 °F 61% 30.13 in 10.0 mi South 3.5 mph - N/A   Clear
3:15 AM 39.2 °F - 26.6 °F 61% 30.13 in 10.0 mi Calm Calm - N/A   Clear
3:35 AM 39.2 °F - 26.6 °F 61% 30.14 in 10.0 mi Calm Calm - N/A   Clear
3:55 AM 37.4 °F - 26.6 °F 65% 30.14 in 10.0 mi Calm Calm - N/A   Clear
4:15 AM 37.4 °F 34.9 °F 26.6 °F 65% 30.14 in 10.0 mi ENE 3.5 mph - N/A   Clear
4:35 AM 37.4 °F 33.8 °F 26.6 °F 65% 30.15 in 10.0 mi East 4.6 mph - N/A   Clear
4:55 AM 37.4 °F 34.9 °F 26.6 °F 65% 30.15 in 10.0 mi ESE 3.5 mph - N/A   Clear
5:15 AM 37.4 °F - 24.8 °F 60% 30.16 in 10.0 mi Calm Calm - N/A   Clear
5:35 AM 35.6 °F - 26.6 °F 70% 30.16 in 10.0 mi Calm Calm - N/A   Clear
5:55 AM 35.6 °F - 24.8 °F 65% 30.17 in 10.0 mi Calm Calm - N/A   Clear
6:15 AM 35.6 °F - 24.8 °F 65% 30.17 in 10.0 mi Calm Calm - N/A   Clear
6:35 AM 35.6 °F 32.8 °F 24.8 °F 65% 30.17 in 10.0 mi ESE 3.5 mph - N/A   Clear
6:50 AM 35.6 °F - 24.8 °F 65% 30.17 in 10.0 mi Calm Calm - N/A   Partly Cloudy
7:50 AM 33.8 °F - 24.8 °F 70% 30.19 in 10.0 mi Calm Calm - N/A   Partly Cloudy
8:50 AM 41.0 °F - 26.6 °F 57% 30.20 in 10.0 mi Calm Calm - N/A   Partly Cloudy
9:50 AM 46.4 °F - 26.6 °F 46% 30.19 in 10.0 mi Calm Calm - N/A   Partly Cloudy
10:50 AM 53.6 °F - 24.8 °F 33% 30.17 in 10.0 mi Calm Calm - N/A   Partly Cloudy
11:53 AM 60.8 °F - 26.6 °F 27% 30.15 in 10.0 mi Calm Calm - N/A   Partly Cloudy
1:52 PM 71.6 °F - 24.8 °F 17% 30.07 in 10.0 mi Calm Calm - N/A   Partly Cloudy
2:49 PM 73.4 °F - 24.8 °F 16% 30.05 in 10.0 mi WSW 10.4 mph - N/A   Partly Cloudy
3:45 PM 73.4 °F - 24.8 °F 16% 30.05 in 10.0 mi West 12.7 mph 17.3 mph N/A   Scattered Clouds
4:51 PM 73.4 °F - 24.8 °F 16% 30.05 in 10.0 mi West 10.4 mph 18.4 mph N/A   Mostly Cloudy
5:53 PM 69.8 °F - 24.8 °F 18% 30.05 in 10.0 mi WSW 6.9 mph - N/A   Mostly Cloudy
7:15 PM 66.2 °F - 24.8 °F 21% 30.06 in 10.0 mi Calm Calm - N/A   Clear
7:35 PM 66.2 °F - 24.8 °F 21% 30.07 in 10.0 mi Calm Calm - N/A   Clear
7:55 PM 64.4 °F - 24.8 °F 22% 30.08 in 10.0 mi East 3.5 mph - N/A   Clear
8:15 PM 60.8 °F - 24.8 °F 25% 30.08 in 10.0 mi East 6.9 mph - N/A   Clear
8:35 PM 59.0 °F - 24.8 °F 27% 30.09 in 10.0 mi East 9.2 mph - N/A   Clear
8:55 PM 57.2 °F - 24.8 °F 29% 30.10 in 10.0 mi East 8.1 mph - N/A   Scattered Clouds
9:55 PM 55.4 °F - 24.8 °F 31% 30.11 in 10.0 mi East 5.8 mph - N/A   Scattered Clouds
10:15 PM 55.4 °F - 24.8 °F 31% 30.11 in 10.0 mi ENE 5.8 mph - N/A   Clear
10:35 PM 55.4 °F - 24.8 °F 31% 30.11 in 10.0 mi SSE 4.6 mph - N/A   Partly Cloudy
11:15 PM 53.6 °F - 24.8 °F 33% 30.12 in 10.0 mi Calm Calm - N/A   Scattered Clouds
11:35 PM 53.6 °F - 24.8 °F 33% 30.12 in 10.0 mi Calm Calm - N/A   Partly Cloudy
11:55 PM 51.8 °F - 24.8 °F 35% 30.13 in 10.0 mi Calm Calm - N/A   Partly Cloudy